This demonstration page uses our WeatherBlox Daily Observations layout. Learn more.

Left ArrowRight Arrow

38.20091, -84.87328

Hourly Observations for April 4, 2022

Temp ( °F °C ) Dew Point ( °F °C ) Humidity (%) Winds ( mph kmh ) Pressure ( in mb ) Visibility ( mi km ) Precip ( " mm )
12:53 am 00:53 Clear 39 3.9 33 0.6 79 79 Calm 30.02 1017 10 16 0.00 0.00
4:53 am 04:53 Mostly Clear 43 6.1 35 1.7 74 74 Calm 29.96 1015 10 16 0.00 0.00
5:53 am 05:53 Cloudy 44 6.7 34 1.1 68 68 ESE 5 7 29.95 1014 10 16 0.00 0.00
6:53 am 06:53 Mostly Clear 44 6.7 35 1.7 71 71 Calm 29.98 1015 10 16 0.00 0.00
7:53 am 07:53 Mostly Cloudy 46 7.8 34 1.1 63 63 SSW 3 6 30.00 1016 10 16 0.00 0.00
8:53 am 08:53 Cloudy 47 8.3 34 1.1 61 61 S 6 9 29.98 1015 10 16 0.00 0.00
9:53 am 09:53 Cloudy 49 9.4 35 1.7 59 59 SSE 6 9 29.97 1015 10 16 0.00 0.00
10:53 am 10:53 Cloudy 52 11.1 35 1.7 53 53 Calm 29.99 1016 10 16 0.00 0.00
11:53 am 11:53 Cloudy 54 12.2 35 1.7 49 49 SSE 6 9 29.97 1015 10 16 0.00 0.00
12:53 pm 12:53 Cloudy 56 13.3 35 1.7 46 46 SSW 10 17 29.96 1015 10 16 0.00 0.00
1:53 pm 13:53 Cloudy 56 13.3 34 1.1 44 44 SW 9 15 29.95 1014 10 16 0.00 0.00
2:53 pm 14:53 Cloudy 56 13.3 34 1.1 44 44 WSW 7 11 29.94 1014 10 16 0.00 0.00
3:53 pm 15:53 Cloudy 58 14.4 37 2.8 46 46 SW 15 24 29.92 1013 10 16 0.00 0.00
4:53 pm 16:53 Cloudy 58 14.4 37 2.8 46 46 SW 8 13 29.90 1013 10 16 0.00 0.00
5:51 pm 17:51 Cloudy 57 14 45 7 63 63 W 7 11 29.89 1012 10 16 0.00 0.00
5:53 pm 17:53 Cloudy 58 14.4 44 6.7 60 60 W 6 9 29.88 1012 10 16 0.00 0.00
6:14 pm 18:14 Cloudy 58 14.4 45 7.2 62 62 SW 7 11 29.89 1012 10 16 0.00 0.00
6:53 pm 18:53 Cloudy 58 14.4 44 6.7 60 60 SW 7 11 29.88 1012 10 16 0.00 0.00
7:53 pm 19:53 Cloudy 57 13.9 42 5.6 58 58 S 5 7 29.88 1012 10 16 0.00 0.00
8:53 pm 20:53 Cloudy 56 13.3 42 5.6 60 60 Calm 29.89 1012 10 16 0.00 0.00
9:53 pm 21:53 Cloudy 54 12.2 44 6.7 69 69 Calm 29.89 1012 10 16 0.00 0.00
10:53 pm 22:53 Cloudy 52 11.1 45 7.2 77 77 Calm 29.89 1012 10 16 0.00 0.00
11:53 pm 23:53 Cloudy 54 12.2 44 6.7 69 69 S 5 7 29.89 1012 10 16 0.00 0.00

Powered by AerisWeather